Regional Weather Roundup
Issued by NWS Upton, NY

Current Version | Previous Version | Graphics & Text | Print | Product List | Glossary Off
Versions: 1 2 3 4 5 6 7 8 9 10 11 12 13 14 15 16 17 18 19 20 21 22 23 24 25 26 27 28 29 30 31 32 33 34 35 36 37 38 39 40 41 42 43 44 45 46 47 48 49 50

000
ASUS41 KOKX 280805
RWROKX

REGIONAL WEATHER ROUNDUP
NATIONAL WEATHER SERVICE NEW YORK NY
300 AM EST FRI NOV 28 2014

NOTE: "FAIR" INDICATES FEW OR NO CLOUDS BELOW 12,000 FEET WITH NO
SIGNIFICANT WEATHER AND/OR OBSTRUCTIONS TO VISIBILITY.

NYZ071-072-176-178-NJZ106-104-280900-
NEW YORK CITY METRO AREA


CITY           SKY/WX    TMP DP  RH WIND       PRES   REMARKS
CENTRAL PARK   CLEAR     32  21  64 W6        30.10S WCI  26
LAGUARDIA APRT PTCLDY    32  24  72 NW13      30.08R WCI  22
KENNEDY INTL   PTCLDY    32  23  69 W10       30.09R WCI  24
NEWARK/LIBERTY PTCLDY    29  22  75 NW6       30.10R WCI  23
BRNX BOT. GARD   N/A    N/A N/A N/A SW12      30.07S
TETERBORO      CLEAR     31  22  69 W8        30.08S WCI  23
$$

NYZ177-179-078>081-280900-
LONG ISLAND NEW YORK

CITY           SKY/WX    TMP DP  RH WIND       PRES   REMARKS
FARMINGDALE    CLEAR     33  25  72 NW6       30.07R WCI  28
ISLIP          PTCLDY    32  26  78 NW8       30.04R WCI  25
SHIRLEY        CLOUDY    33  26  75 NW6       30.05R WCI  28
WESTHAMPTON    CLOUDY    35  25  66 NW10      30.04R WCI  27
MONTAUK POINT    N/A     36  28  73 NW12G20   30.01R WCI  28
$$

NYZ052-065-067-280900-
HUDSON VALLEY

CITY           SKY/WX    TMP DP  RH WIND       PRES   REMARKS
WHITE PLAINS   CLEAR     30  23  75 NW8       30.04S WCI  22
NEWBURGH       PTCLDY    21  19  93 W7        30.07  WCI  13
MONTGOMERY     PTCLDY    20  17  88 SW3       30.06R
POUGHKEEPSIE   PTCLDY    21  19  92 CALM      30.06S FOG
ALBANY         FLURRIES  28  25  88 CALM      30.06R
$$

NJZ001-105-106-008-010-013-015-019>022-104-280900-
NEW JERSEY

CITY           SKY/WX    TMP DP  RH WIND       PRES   REMARKS
NEWARK/LIBERTY PTCLDY    29  22  75 NW6       30.10R WCI  23
TETERBORO      CLEAR     31  22  69 W8        30.08S WCI  23
CALDWELL       PTCLDY    27  21  78 CALM      30.10R
MORRISTOWN       N/A     28  25  86 CALM      30.09S
SOMERVILLE     CLOUDY    26  23  88 CALM      30.09S
SUSSEX         PTCLDY    20  18  92 CALM      30.08R FOG
ANDOVER          N/A     22  20  92 CALM      30.07S
TRENTON        CLOUDY    30  24  78 W3        30.11R
MILLVILLE      CLOUDY    33  30  88 NW8       30.13S WCI  26
ATLANTIC CITY  CLEAR     28  25  88 NW7       30.12S WCI  21
WRIGHTSTOWN    CLOUDY    30  25  83 W5        30.09R WCI  25
TOMS RIVER     CLEAR     27  25  93 CALM      30.11S
BELMAR         CLEAR     30  18  59 NW9       30.09R WCI  22
$$

PAZ047>061-062-071-280900-
EASTERN PENNSYLVANIA

CITY           SKY/WX    TMP DP  RH WIND       PRES   REMARKS
PHILADELPHIA   MOCLDY    34  27  75 W6        30.14R WCI  29
ALLENTOWN      MOCLDY    28  23  81 SW3       30.10S
SCRANTON       CLOUDY    27  23  85 SW7       30.06S WCI  19
$$

CTZ002-004>006-009-010-012-RIZ004-006-007-MAZ004-011-015-280900-
SOUTHERN NEW ENGLAND
 IN CT

CITY           SKY/WX    TMP DP  RH WIND       PRES   REMARKS
BRADLEY INTL   CLOUDY    32  27  81 NW5       30.02S WCI  27
HARTFORD       CLOUDY    32  26  78 VRB6      30.03S WCI  26
DANBURY        PTCLDY    27  22  81 CALM      30.05S
WTRBRY/OXFORD  MOCLDY    28  19  69 NW6       30.03S WCI  22
BRIDGEPORT     CLOUDY    32  26  78 NW10      30.05R WCI  24
MERIDEN        CLOUDY    32  24  72 NW8       30.04R WCI  25
NEW HAVEN      CLOUDY    36  25  64 NW8       30.04R WCI  30
CHESTER        CLOUDY    32  28  86 NW7       30.00S WCI  26
GROTON         FLURRIES  32  28  85 NW12      30.00S WCI  23
WILLIMANTIC    CLOUDY    31  26  82 NW7       30.01S WCI  24

 IN RI

CITY           SKY/WX    TMP DP  RH WIND       PRES   REMARKS
PROVIDENCE     CLOUDY    31  26  82 N10       29.99S WCI  22
BLOCK ISLAND   CLOUDY    34  25  69 N10G18    29.98R WCI  26
WESTERLY       CLOUDY    32  27  81 NW8       30.00S WCI  25

 IN MA

CITY           SKY/WX    TMP DP  RH WIND       PRES   REMARKS
BOSTON         LGT SNOW  30  28  92 NW9       30.00S VSB 1   WCI  22
WORCESTER      CLOUDY    26  24  92 NW6       29.95S WCI  19
WESTFIELD      CLOUDY    30  27  88 CALM      30.02R
PROVINCETOWN   CLOUDY    39  34  81 CALM      29.93F
NANTUCKET      CLOUDY    38  35  89 NW16      29.92S WCI  29
$$

ANZ330-335-338-340-345-350-353-355-280900-
COASTAL MARINE OBSERVATIONS


STATION/POSITION TIME  SKY/WX   TEMP    WIND        PRES    VSBY  WAVE
                                AIR SEA DIR/SP/G                  HT/PER
                 (UTC)          (F)     (DEG/KT/KT) (MB)    (MI)  (FT/S)
NY HARB ENTRANCE 0800            36 54  310/ 19/ 25 1018.3          3/10
4S FIRE IS       0800               52                N/A           3/11
20S FIRE ISLAND  0800            39 54  320/ 17/ 21 1017.0          4/11
23SW MTP         0800                                 N/A           4/10
HUDSON CANYON    0800            41 58  340/ 23/ 31 1015.1          6/ 6
EXECUTION ROCKS  0800            34 47  310/ 10/ 16   N/A
WESTERN LI SOUND 0800            35     300/ 14/ 17   N/A           0
CENTRAL LI SOUND 0700            35 50  330/ 14/ 17   N/A           1/ 3
EASTERN LI SOUND 0700            35 52  330/ 12/ 16   N/A
ROBBINS REEF     0800            32     310/ 11/ 15 1017.7
$$


>>>>>>>>>>>>>>>>>>>>>>>>>>>> KEY <<<<<<<<<<<<<<<<<<<<<<<<<<<
>                                                          <
>     SKY/WX - SKY CONDITION/PRESENT WEATHER               <
>     TMP    - TEMPERATURE IN FAHRENHEIT                   <
>     DP     - DEWPOINT IN FAHRENHEIT                      <
>     RH     - RELATIVE HUMIDITY IN PERCENT                <
>     WIND   - DIRECTION AND SPEED IN MPH                  <
>     PRES   - MEAN SEA LEVEL PRESSURE IN INCHES OF HG     <
>     WCI    - WIND CHILL INDEX                            <
>     VSB    - VISIBILITY IN MILES                         <
>     HX     - HEAT INDEX                                  <
>     TC     - TEMPERATURE IN CELSIUS                      <
>     VRB    - VARIABLE WIND DIRECTION                     <
>                                                          <
>>>>>>>>>>>>>>>>>>>>>>>>>>>> KEY <<<<<<<<<<<<<<<<<<<<<<<<<<<




USA.gov is the U.S. government's official web portal to all federal, state and local government web resources and services.